Mitgliederbereich
Imprimable
Challenges > Delhalle - Jurbise, 25/09/2010, BEL - La Forestière
Liste der Berichte > Delhalle - 14km - Ergebnis
Suche: Seite: [1]
85 Eingaben
 
Les réclamations ne sont plus acceptées, les résultats sont considérés comme définitifs.
PlatzNrNameAgeNATLigaMannschaftRealZeitTkmMoy.ScrPtsStadt
1.2179DUPONT Eddy41BELMOHAOXY 200047:4747:493:25 17.5711073ECAUSSINNES
2.238VAN DEN ABEELE Sebastian40BELACLO48:0248:043:26 17.4831066CARNIERES
3.4VANDERBECK Yves42BELRIWARONVAU48:5748:583:30 17.1541045MALONNE
4.342LOMBART Frederic43BELOCAN51:1251:143:40 16.406997GEMBLOUX
5.278HANOT Serge47BELRONVAU51:1251:143:40 16.407996LIERNU
6.180GILBERT 2 Michel 243BELATCC51:4751:503:43 16.218983MARCINELLE
7.2208DEJARDIN Philippe41BELU.S.B.POLICE NIVEL52:5753:003:48 15.8510958BRAINE-L ALLEUD
8.291PAULY Michel49BELHERV53:0053:033:48 15.8311956BOLLAND
9.406NEYMAN Eric42BEL53:4653:503:51 15.6016936HERON
10.625WOOLF Alain49BELAC ORLE JOUR53:5754:023:52 15.5518931DONCEEL
11.660POLET Alain47BELSMAC54:2254:253:54 15.4421920BOUGE
12.2256POTTIEZ Jessy41BELHTT54:5355:003:56 15.2724908BAUDOUR
13.975LÉONARD Marc41BELFCHA54:5255:073:57 15.2426906VILLERS-LE-PEUP
14.677PAULUS Philippe49BELESM55:0355:093:57 15.2328901MONT-SUR-MARCHI
15.348MANIQUET Michel47BELUACDILAVILE57:3757:444:08 14.5542840BIESME
16.658BAIJOT Eric44BELARCHPOLICE57:5658:024:09 14.4747830DINANT
17.321ORVAL Alain41BELHAC58:0058:044:09 14.4749826CINEY
18.2194POTVIN Vincent41BELOBJ58:0558:154:10 14.4251823ANGREAU
19.106LORGE Jean Marc44BELRONVAU58:1858:264:11 14.3853817EGHEZEE
20.264SCAILLET Vincent41BEL58:5959:084:14 14.2156802HEER
21.2168TORDOIR Eric48BELRCB59:1159:194:15 14.1659796LA LOUVIERE
22.120DIEPENDAELE Rudi47BELACLOTOTAL59:1159:224:15 14.1560795LA HESTRE
23.2167FELIX Romuald42BELST SAU59:3259:344:16 14.1063786
24.2220BANUSZ Rudy43BELTOTAL59:2559:364:16 14.0964787MORLANWELZ
25.404TILBURGS Frank43BELAVN1:00:061:00:144:19 13.9565774MEER
26.2189MERCIER Pascal43BELTRICLU1:00:571:01:064:22 13.7568757NIMY
27.2016REMY Philippe48BELACCOESM1:01:501:02:004:26 13.5574736COURCELLES
28.337DAMSTEN Thierry46FIN1:02:081:02:124:27 13.5079727RO
29.128BAURIN Herve45BEL1:02:141:02:224:28 13.4780724AGIMONT
30.738WILLEMS Lucas49BEL1:02:231:02:304:28 13.4481721SAINT MARTIN
31.2015FRANCIS Alain48BELFLEUESM1:02:261:02:424:29 13.4083718RANSART
32.2236MARBAIX Didier44BELTHEODOTEMPO1:02:591:03:034:31 13.3292700
33.193DI BIASE Renato45ITABOUFFIOL1:03:111:03:224:32 13.2694695COUILLET
34.2249MOREAU Eddy47BELETCHIEVR1:03:021:03:254:32 13.2595697SAINT-GHISLAIN
35.2174TORDEUR Yves43BELET CHIEVRES1:03:271:03:344:33 13.2196689
36.2020MORO Terry45ITANAC1:03:391:03:534:34 13.1598684SENEFFE
37.520DE NARDI Jean-Carlo48BEL1:04:091:04:134:36 13.08102672SAINT-SERVAIS
38.240FONTAINE Bernard47BELKURISTO1:04:091:04:134:36 13.08103670BRUXELLES
39.126DELVAUX Philippe47BELSMAC1:04:231:04:314:37 13.02105665JAMBES
40.446RIJCKAERT Fabian40BEL1:04:311:04:434:38 12.98106662ANDENNE
41.2103DELYS Christophe42BELAC BELOEIL1:04:531:05:174:40 12.87112650SIRAULT
42.2247DARDENNE Philippe47BELBAIL R1:05:081:05:184:40 12.86113646
43.499LAURENT Philippe44BELBAIL RUN1:05:331:05:434:42 12.78120632YVOIR
43.2125SCOUBEAU Olivier47BELHAC1:05:361:05:434:42 12.78120631SPIENNES
45.2169DESMET Jean-Pierre43BELSPIBO1:05:361:05:494:43 12.76123629
46.203ALBERT Michel49BELRONVAU1:05:561:06:034:44 12.72126620LIERNU
47.2213DENECKERE Andre47BELZATAC1:06:341:06:434:46 12.59132605
48.2008MAHIEU Philippe47BELMOHATITAN1:06:341:06:454:47 12.58136601BRAINE LE COMTE
49.2224BALLEZ Franois49BEL1:06:531:07:214:49 12.47141591MONS
50.2204TREBOT Jean-Pierre47BEL1:07:081:07:224:49 12.47142587GRAND-RENG
51.2268DECLERCQ Peter48BEL1:07:311:07:314:50 12.44145578
52.2106DURIN Eric48BELOBJ1:07:301:07:464:51 12.40147576BAISIEUX
53.2270GOSSELIN Robert44BELKAPUCI1:07:551:08:184:53 12.30150567
54.2145WALSH Michael41BELRUNNING FOR1:08:161:08:264:54 12.271515617050 MASNUY-SAI
55.2243HOYOIS Bernard41BELSPI BO1:08:171:08:354:54 12.25152560BAUDOUR
56.163DE WASSEIGE J-Christophe45BEL1:08:251:08:384:55 12.24154555BRUXELLES
57.624LONGEVAL Jan45BEL1:08:311:08:424:55 12.23155553DEURLE
58.2149CHOUKRANE Moustafa46BELSPIRIDON1:08:411:08:454:55 12.22156550
59.2173CAUDRON David43BELSPIBO1:08:411:08:484:55 12.21158548FLENU
60.2218MONFORT Philippe43BEL1:09:481:10:045:01 11.99167523
61.2003FLAMENT Eddy47BEL1:10:011:10:055:01 11.99168519MONS
62.2012TRANCHANT Olivier46BELAPPEV IPF1:10:021:10:165:02 11.95169517JURBISE
63.2138DURIEUX Stany46BEL1:10:361:10:505:04 11.86175503
64.2158DEWULF Joel40BELTP VERT1:11:471:12:015:09 11.66184478LENS
65.2239SPAGNUOLO Angelo49BELSPIBO1:12:021:12:145:10 11.63187471SPIENNES
66.2156BORDJI Ramdan45BELSPIBO1:12:311:12:365:12 11.57193459
67.2131MODAVE Philippe42BEL1:12:271:12:425:12 11.55195457
68.2238PETIT Jean-Luc43BELPOLICE HAUTS1:12:121:12:475:12 11.54196460
69.2241VANVEUREN Christian47BEL1:12:291:12:515:13 11.53198454
70.2123PLATTEAU Olivier42BELJCBAUDOUR1:13:071:13:365:16 11.41205439TERTRE
71.2011STILMANT Denis46BELNAC1:14:211:14:295:20 11.28218409OBAIX
72.2185JANSSENS Dirk47BELDAC1:15:241:15:475:25 11.08228385HULDENBERG
73.2231LOUSSE Herve40BEL1:16:571:17:165:32 10.87243350
74.356SAUCIN Luc49BELRRTCHATEL1:17:511:18:225:36 10.72256325CHATELET
75.2233MAWET Marc44BEL1:18:051:18:255:37 10.71259319
76.2250GOFFINET Jean-Francois42BEL1:18:381:18:565:39 10.64265307
77.192GEUSKENS Jean Marc46BEL1:19:491:20:145:44 10.47275281BRUXELLES
78.2177GEVENOIS Frank48BELJC BAU1:22:011:22:295:54 10.18290239
79.2221ROISEUX Alain46BELTOTAL1:22:571:23:245:58 10.07300218BAUDOUR
80.330GEUSKENS Nicolas42BEL1:23:171:23:435:59 10.03303211WAVRE
81.381BRICOULT David47BELFLEUESM1:23:511:24:106:01 9.98310197MONT SUR MARCHI
82.2154VAN WIN Olivier45BELACLO1:24:081:24:336:03 9.93313191
83.377SPRIMONT Olivier47BEL1:24:461:25:056:05 9.87315181UCCLE
84.2193ZUCCOLOTTO David42BELRACLO1:31:111:31:366:33 9.1733091
85.162PEETERS Jacques41BEL1:32:081:32:296:37 9.0833278ALLEUR
DNF: abandon; DSQ: disqualifié; Vitesse en km/h
Seite: [1]